Starlink 2355

operational
NORAD ID: 47895 Int'l Des: 2021-021 Owner: SPXS Country: US Constellation: starlink
LEOCIRCULAR

Starlink 2355について

説明を読み込み中...

リアルタイム位置

3D地球を読み込み中...

次回通過

高度履歴

Altitude vs Time

uPlot chart will show altitude changes over time

軌道要素

1 47895U 21021AM 26061.00002315 .00016940 00000-0 58305-3 0 9999
2 47895 53.1583 303.8703 0001412 74.5191 22.1425 15.30183088 5591
Epoch: Mar 2, 2026 • Age: 48 hours

現在のステータス

高度 494.5 km
速度 7.62 km/s
衛星直下点 -53.22°S, 41.62°E
打ち上げ日 Mar 14, 2021
運用期間 4.9 years
タイプ internet

技術仕様

分類 Payload
質量 260.00 kg
乾燥質量 248.00 kg
総質量 260.00 kg
長さ 0.20 m
直径 2.80 m
スパン 9.00 m
形状 Box + pan
製造者 SPXS
バスタイプ Starlink
フェーズステータス In Orbit
所有者/国 SPXS/US

大規模コンステレーション

Loading constellations...